Regional Weather Roundup
Issued by NWS

Home | Current Version | Previous Version | Text Only | Print | Product List | Glossary Off
Versions: 1 2 3 4 5 6 7 8 9 10 11 12 13 14 15 16 17 18 19 20 21 22 23 24 25 26 27 28 29 30 31 32 33 34 35 36 37 38 39 40 41 42 43 44 45 46 47 48 49 50

271
ASUS43 KIND 231209
RWRIN

WEATHER ROUNDUP FOR INDIANA
NATIONAL WEATHER SERVICE INDIANAPOLIS IN
800 AM EDT SAT SEP 23 2017

NOTE: "FAIR" INDICATES FEW OR NO CLOUDS BELOW 12,000 FEET WITH NO
SIGNIFICANT WEATHER AND/OR OBSTRUCTIONS TO VISIBILITY.

* - STATION DOES NOT REPORT WEATHER SUCH AS PRECIPITATION OR FOG.

+ - STATION NOT QUALITY CONTROLLED BY THE NATIONAL WEATHER SERVICE.
    USE DATA WITH CAUTION...ESPECIALLY DEWPOINT AND RELATIVE
    HUMIDITY OBSERVATIONS.

INZ001>003-010>013-019-020-231300-
NORTHWEST INDIANA

CITY           SKY/WX    TMP DP  RH WIND       PRES   REMARKS
GARY /AIRPORT/ PTCLDY    66  64  94 VRB3      30.09R
KNOX *+          N/A     61  61 100 CALM      30.09R
LA PORTE +     CLEAR     64  64  97 CALM      30.12R FOG
6HR MIN TEMP:  64; 6HR MAX TEMP:  69;

MICHIGAN CITY+ CLEAR     66  66 100 CALM      30.10R FOG
MONTICELLO +   CLEAR     65  63  95 CALM      30.08R FOG
6HR MIN TEMP:  64; 6HR MAX TEMP:  69;

RENSSELAER +   CLEAR     64  61  88 CALM      30.10R FOG
VALPARAISO     CLEAR     67  66  97 NE3       30.11R FOG
6HR MIN TEMP:  65; 6HR MAX TEMP:  71;


$$

LMZ046-743>745-231300-
SOUTHERN LAKE MICHIGAN

STATION/POSITION TIME  TEMP    WIND        PRES    WAVE
                       AIR SEA DIR/SP/G            HT
                 (UTC) (F)     (DEG/KT/KT) (MB)    (FT)
BURNS HARBOR     1140   72     190/  2/  3 1019.3R
MICHIGAN CITY    1140   73     210/  2/  2   N/A
5NW MICH CITY    1200   73 71  180/  2/  2   N/A     0

$$

INZ004-005-014>016-021>024-231300-
NORTH CENTRAL INDIANA

CITY           SKY/WX    TMP DP  RH WIND       PRES   REMARKS
ELKHART        CLEAR     66  64  94 CALM      30.12  FOG
GOSHEN         CLEAR     66  62  87 CALM      30.12R FOG
6HR MIN TEMP:  64; 6HR MAX TEMP:  71;

LOGANSPORT +   FOG       63  63 100 CALM      30.11R VSB 1/2
PERU/GRISSOM   CLEAR     65  65 100 E3        30.10R FOG
6HR MIN TEMP:  64; 6HR MAX TEMP:  70;

SOUTH BEND     CLEAR     67  67 100 CALM      30.12R FOG
6HR MIN TEMP:  64; 6HR MAX TEMP:  73;

WARSAW +       CLEAR     64  64 100 CALM      30.12R FOG

$$

INZ006>009-017-018-025>027-231300-
NORTHEAST INDIANA

CITY           SKY/WX    TMP DP  RH WIND       PRES   REMARKS
AUBURN +       CLEAR     63  61  94 CALM      30.13R FOG
FORT WAYNE     CLEAR     65  63  93 E3        30.13R
6HR MIN TEMP:  64; 6HR MAX TEMP:  70;

HUNTINGTON +   CLEAR     64  62  96 CALM      30.12R FOG
6HR MIN TEMP:  63; 6HR MAX TEMP:  69;

KENDALLVILLE + CLEAR     64  63  97 CALM      30.13S FOG

$$

INZ028-029-035-036-043>045-051>053-231300-
WEST CENTRAL INDIANA

CITY           SKY/WX    TMP DP  RH WIND       PRES   REMARKS
CRAWFORDSVL +  CLEAR     61  61 100 CALM      30.10  FOG
GREENCASTLE +  CLEAR     64  64 100 CALM      30.11R FOG
LAFAYETTE      PTCLDY    66  66 100 CALM      30.09R FOG
6HR MIN TEMP:  65; 6HR MAX TEMP:  69;

TERRE HAUTE    CLEAR     65  63  93 CALM      30.08R
6HR MIN TEMP:  64; 6HR MAX TEMP:  69;


$$

INZ030>032-037>040-046>048-054>057-064-065-231300-
CENTRAL INDIANA

CITY           SKY/WX    TMP DP  RH WIND       PRES   REMARKS
CP ATTERBURY + FOG       61  61 100 CALM      30.11R VSB 1/4
COLUMBUS       CLEAR     63  61  94 CALM      30.11R FOG
FISHERS *+       N/A     64  64 100 CALM      30.11R VSB 3/4
FRANKFORT +    CLOUDY    66  65  96 CALM      30.11R FOG
6HR MIN TEMP:  65; 6HR MAX TEMP:  68;

GREENWOOD *+   CLEAR     68  67  98 CALM      30.10S
INDIANAPOLIS   PTCLDY    70  66  87 SE3       30.10R
6HR MIN TEMP:  69; 6HR MAX TEMP:  77;

-EAGLE CREEK   CLEAR     67  65  93 CALM      30.09R FOG
6HR MIN TEMP:  67; 6HR MAX TEMP:  72;

KOKOMO +       CLEAR     64  64 100 SE3       30.12R FOG
6HR MIN TEMP:  64; 6HR MAX TEMP:  69;

MARION +       CLEAR     64  64 100 CALM      30.12  FOG
MT COMFORT *+    N/A     61  61 100 CALM      30.11R VSB 1/4
SHELBYVILLE    CLEAR     64  60  87 E3        30.10R
6HR MIN TEMP:  63; 6HR MAX TEMP:  68;

ZIONSVILLE +   CLEAR     62  62 100 CALM      30.11R FOG
6HR MIN TEMP:  61; 6HR MAX TEMP:  66;


$$

INZ033-034-041-042-049-050-058-059-231300-
EAST CENTRAL INDIANA

CITY           SKY/WX    TMP DP  RH WIND       PRES   REMARKS
MUNCIE         CLEAR     66  63  90 CALM      30.12R FOG
6HR MIN TEMP:  64; 6HR MAX TEMP:  68;

RICHMOND +     RAIN      61  61 100 CALM      30.14R

$$

INZ060-061-067>069-081>083-085>088-231300-
SOUTHWEST INDIANA

CITY           SKY/WX    TMP DP  RH WIND       PRES   REMARKS
EVANSVILLE     CLEAR     66  64  93 NE3       30.07R
6HR MIN TEMP:  66; 6HR MAX TEMP:  70;

HUNTINGBURG +  FOG       64  64 100 CALM      30.08R VSB 1/4
6HR MIN TEMP:  64; 6HR MAX TEMP:  68; 6HR PCP: TRACE;

WASHINGTON +   FOG       63  62  94 CALM      30.08R VSB<1/4
6HR MIN TEMP:  63; 6HR MAX TEMP:  67;


$$

INZ062-063-066-070>080-084-089>092-231300-
SOUTH CENTRAL AND SOUTHEAST INDIANA

CITY           SKY/WX    TMP DP  RH WIND       PRES   REMARKS
BEDFORD +        N/A     64  63  94 CALM      30.09R FOG
BLOOMINGTON    PTCLDY    62  60  93 CALM      30.10R
6HR MIN TEMP:  63; 6HR MAX TEMP:  68;

MADISON *+     CLEAR     63  61  94 CALM      30.12R
NORTH VERNON +   N/A     61  61 100 CALM      30.11R FOG
SEYMOUR +        N/A     63  63 100 CALM      30.10R FOG

$$





USA.gov is the U.S. government's official web portal to all federal, state and local government web resources and services.